Date String (YYYY-MM-DD hh:mm:ss) UTC,Instrument flags,Ambient pressure (hPa),Sample flow (lpm),Bypass flow (lpm),Sample temperature (°C),Ambient temperature (°C),ASC tube jacket temperature (°C),LED temperature (°C),Box temperature (°C),Sample RH (%),Span deviation,Mass concentration (μg/m³),Mass concentration (μg/m³),Mass concentration (μg/m³)
DateTimeUTC,F1_M11,P_M11,Q1_M11,Q2_M11,T1_M11,T2_M11,T3_M11,T4_M11,T5_M11,U1_M11,ZSPAN_M11,X0_M11,X2_M11,X1_M11
2022-06-28 08:00:00,,0833.4,5.00,0.00,30.0,28.9,00.0,38.8,31.9,17.3,0000.0,0006.01,0003.17,0002.63
2022-06-28 08:01:00,,0833.4,5.01,0.00,30.0,28.9,00.0,38.8,31.9,17.3,0000.0,0006.56,0003.17,0002.64
2022-06-28 08:02:00,,0833.4,5.00,0.00,30.0,28.9,00.0,38.8,31.9,17.2,0000.0,0007.36,0003.18,0002.63
2022-06-28 08:03:00,,0833.4,5.00,0.00,30.0,28.9,00.0,38.8,31.9,17.2,0000.0,0007.46,0003.20,0002.64
2022-06-28 08:04:00,,0833.4,4.99,0.00,30.0,28.9,00.0,38.8,31.9,17.2,0000.0,0006.65,0003.20,0002.65
2022-06-28 08:05:00,,0833.5,5.01,0.00,30.0,28.9,00.0,38.8,31.9,17.1,0000.0,0006.66,0003.24,0002.67
2022-06-28 08:06:00,,0833.4,5.00,0.00,30.0,28.9,00.0,38.9,31.9,17.1,0000.0,0006.63,0003.25,0002.68
2022-06-28 08:07:00,,0833.4,5.00,0.00,30.1,28.9,00.0,38.9,31.9,17.2,0000.0,0006.52,0003.24,0002.69
2022-06-28 08:08:00,,0833.3,4.99,0.00,30.1,29.0,00.0,38.9,31.9,17.0,0000.0,0006.50,0003.24,0002.70
2022-06-28 08:09:00,,0833.2,5.01,0.00,30.1,28.9,00.0,38.9,31.9,16.9,0000.0,0006.50,0003.24,0002.71
2022-06-28 08:10:00,,0833.3,4.99,0.00,30.1,29.0,00.0,38.9,31.9,16.9,0000.0,0006.31,0003.23,0002.72
2022-06-28 08:11:00,,0833.2,4.99,0.00,30.1,29.0,00.0,38.9,31.9,17.0,0000.0,0006.95,0003.22,0002.75
2022-06-28 08:12:00,,0833.3,5.00,0.00,30.1,29.0,00.0,38.9,31.9,17.0,0000.0,0007.15,0003.23,0002.76
2022-06-28 08:13:00,,0833.2,5.01,0.00,30.1,29.0,00.0,38.9,31.9,16.9,0000.0,0006.95,0003.22,0002.76
2022-06-28 08:14:00,,0833.1,4.99,0.00,30.1,29.0,00.0,38.9,31.9,16.9,0000.0,0006.99,0003.24,0002.76
2022-06-28 08:15:00,,0833.2,5.00,0.00,30.1,29.0,00.0,38.9,31.9,16.8,0000.0,0007.17,0003.25,0002.76
2022-06-28 08:16:00,,0833.2,4.99,0.00,30.1,29.0,00.0,38.9,31.9,16.8,0000.0,0006.98,0003.22,0002.76
2022-06-28 08:17:00,,0833.2,5.01,0.00,30.1,29.0,00.0,38.9,31.9,16.8,0000.0,0007.33,0003.26,0002.77
2022-06-28 08:18:00,,0833.2,5.01,0.00,30.1,29.0,00.0,38.9,31.9,16.8,0000.0,0007.39,0003.28,0002.82
2022-06-28 08:19:00,,0833.1,4.99,0.00,30.1,29.0,00.0,38.9,31.9,16.8,0000.0,0007.40,0003.30,0002.85
2022-06-28 08:20:00,,0833.2,5.01,0.00,30.1,29.0,00.0,38.9,31.9,16.8,0000.0,0007.51,0003.32,0002.87
2022-06-28 08:21:00,,0833.2,4.99,0.00,30.1,29.0,00.0,38.9,31.9,16.8,0000.0,0007.60,0003.34,0002.89
2022-06-28 08:22:00,,0833.2,5.00,0.00,30.1,29.0,00.0,38.9,31.9,16.8,0000.0,0007.08,0003.33,0002.90
2022-06-28 08:23:00,,0833.2,5.02,0.00,30.1,29.0,00.0,38.9,31.9,16.7,0000.0,0006.20,0003.32,0002.92
2022-06-28 08:24:00,,0833.2,5.01,0.00,30.1,29.0,00.0,38.9,32.0,16.7,0000.0,0005.66,0003.35,0002.96
2022-06-28 08:25:00,,0833.2,4.99,0.00,30.1,29.0,00.0,38.9,32.0,16.6,0000.0,0005.67,0003.35,0003.00
2022-06-28 08:26:00,,0833.2,5.01,0.00,30.1,29.0,00.0,38.9,32.0,16.6,0000.0,0005.63,0003.38,0003.03
2022-06-28 08:27:00,,0833.2,5.00,0.00,30.1,29.0,00.0,38.9,32.0,16.7,0000.0,0005.69,0003.40,0003.05
2022-06-28 08:28:00,,0833.2,4.99,0.00,30.1,29.0,00.0,38.9,32.0,16.6,0000.0,0005.59,0003.38,0003.06
2022-06-28 08:29:00,,0833.1,5.00,0.00,30.1,29.0,00.0,39.0,32.0,16.6,0000.0,0006.61,0003.36,0003.04
2022-06-28 08:30:00,,0833.2,5.00,0.00,30.1,29.0,00.0,39.0,32.0,16.5,0000.0,0006.66,0003.37,0003.04
2022-06-28 08:31:00,,0833.1,5.00,0.00,30.1,29.0,00.0,39.0,32.0,16.4,0000.0,0006.80,0003.39,0003.04
2022-06-28 08:32:00,,0833.1,5.00,0.00,30.1,29.0,00.0,39.0,32.0,16.5,0000.0,0006.78,0003.41,0003.04
2022-06-28 08:33:00,,0833.1,5.01,0.00,30.1,29.0,00.0,39.0,32.0,16.4,0000.0,0006.90,0003.43,0003.04
2022-06-28 08:34:00,,0833.1,5.00,0.00,30.1,29.0,00.0,39.0,32.0,16.5,0000.0,0006.92,0003.44,0003.06
2022-06-28 08:35:00,,0833.0,5.00,0.00,30.1,29.0,00.0,39.0,32.0,16.4,0000.0,0007.07,0003.43,0003.05
2022-06-28 08:36:00,,0833.0,5.01,0.00,30.1,29.0,00.0,39.0,32.0,16.4,0000.0,0007.29,0003.43,0003.04
2022-06-28 08:37:00,,0833.0,5.00,0.00,30.1,29.0,00.0,39.0,32.0,16.4,0000.0,0007.30,0003.41,0003.04
2022-06-28 08:38:00,,0833.1,4.99,0.00,30.1,29.0,00.0,39.0,32.0,16.3,0000.0,0007.71,0003.40,0003.04
2022-06-28 08:39:00,,0833.0,5.00,0.00,30.1,29.0,00.0,39.0,32.0,16.3,0000.0,0007.87,0003.42,0003.04
2022-06-28 08:40:00,,0833.0,5.01,0.00,30.1,29.0,00.0,39.0,32.0,16.3,0000.0,0007.37,0003.43,0003.03
2022-06-28 08:41:00,,0833.0,5.01,0.00,30.1,29.0,00.0,39.0,32.0,16.2,0000.0,0007.46,0003.43,0003.02
2022-06-28 08:42:00,,0833.0,4.99,0.00,30.1,29.0,00.0,39.0,32.0,16.2,0000.0,0007.40,0003.42,0003.01
2022-06-28 08:43:00,,0833.1,5.01,0.00,30.1,29.0,00.0,39.0,32.0,16.2,0000.0,0007.35,0003.42,0003.02
2022-06-28 08:44:00,,0833.1,5.01,0.00,30.1,29.0,00.0,39.0,32.0,16.2,0000.0,0007.35,0003.42,0003.02
2022-06-28 08:45:00,,0833.0,4.99,0.00,30.1,29.0,00.0,39.0,32.0,16.3,0000.0,0007.52,0003.46,0003.02
2022-06-28 08:46:00,,0833.0,5.01,0.00,30.1,29.0,00.0,39.0,32.0,16.2,0000.0,0007.50,0003.47,0003.03
2022-06-28 08:47:00,,0833.1,5.00,0.00,30.2,29.0,00.0,39.0,32.0,16.2,0000.0,0007.24,0003.47,0003.03
2022-06-28 08:48:00,,0833.0,5.00,0.00,30.2,29.0,00.0,39.0,32.0,16.2,0000.0,0007.32,0003.50,0003.04
2022-06-28 08:49:00,,0833.0,5.01,0.00,30.2,29.0,00.0,39.0,32.0,16.1,0000.0,0006.77,0003.53,0003.04
2022-06-28 08:50:00,,0833.1,5.00,0.00,30.2,29.0,00.0,39.0,32.0,16.2,0000.0,0006.35,0003.51,0003.05
2022-06-28 08:51:00,,0833.0,5.00,0.00,30.2,29.0,00.0,39.0,32.0,16.1,0000.0,0005.96,0003.48,0003.06
2022-06-28 08:52:00,,0833.0,5.01,0.00,30.2,29.0,00.0,39.0,32.0,16.1,0000.0,0005.89,0003.49,0003.08
2022-06-28 08:53:00,,0833.0,5.00,0.00,30.2,29.0,00.0,39.0,32.0,16.1,0000.0,0005.91,0003.50,0003.10
2022-06-28 08:54:00,,0833.0,5.00,0.00,30.2,29.0,00.0,39.0,32.0,16.1,0000.0,0005.95,0003.51,0003.11
2022-06-28 08:55:00,,0832.9,5.01,0.00,30.2,29.0,00.0,39.0,32.0,16.0,0000.0,0005.90,0003.51,0003.12
2022-06-28 08:56:00,,0832.9,5.02,0.00,30.2,29.0,00.0,39.0,32.0,16.0,0000.0,0007.25,0003.51,0003.13
2022-06-28 08:57:00,,0832.8,5.00,0.00,30.2,29.0,00.0,39.0,32.0,16.0,0000.0,0008.03,0003.51,0003.13
2022-06-28 08:58:00,,0832.8,4.99,0.00,30.2,29.0,00.0,39.0,32.0,15.9,0000.0,0008.24,0003.49,0003.14
2022-06-28 08:59:00,,0832.9,4.99,0.00,30.2,29.0,00.0,39.0,32.0,15.8,0000.0,0008.20,0003.47,0003.13
